�������l�o���
Date,Time,MP-1(��Sv/h),MP-2(��Sv/h),MP-3(��Sv/h),MP-4(��Sv/h),MP-5(��Sv/h),MP-6(��Sv/h),MP-7(��Sv/h),MP-8(��Sv/h),����,����(m/s),���J
2019/10/28,00:00,0.707,0.999,0.650,1.232,0.854,0.410,0.709,0.675,�k�k��,4.6,��
2019/10/28,00:10,0.708,0.998,0.647,1.233,0.856,0.409,0.710,0.673,�k��,3.0,��
2019/10/28,00:20,0.707,0.998,0.649,1.233,0.857,0.410,0.709,0.673,�k��,2.9,��
2019/10/28,00:30,0.708,0.997,0.650,1.234,0.856,0.410,0.709,0.669,�k�k��,2.1,��
2019/10/28,00:40,0.707,0.997,0.651,1.230,0.857,0.411,0.708,0.673,�k�k��,2.5,��
2019/10/28,00:50,0.705,0.997,0.649,1.232,0.858,0.409,0.710,0.672,�k�k��,2.4,��
2019/10/28,01:00,0.706,1.000,0.649,1.232,0.855,0.409,0.708,0.673,�k�k��,3.1,��
2019/10/28,01:10,0.706,0.999,0.649,1.232,0.857,0.409,0.708,0.672,�k�k��,3.6,��
2019/10/28,01:20,0.706,0.998,0.650,1.232,0.855,0.410,0.709,0.673,�k�k��,1.5,��
2019/10/28,01:30,0.707,1.000,0.650,1.230,0.855,0.410,0.709,0.673,�k�k��,3.8,��
2019/10/28,01:40,0.705,0.997,0.650,1.233,0.858,0.409,0.709,0.673,�k�k��,4.4,��
2019/10/28,01:50,0.707,0.997,0.650,1.233,0.855,0.409,0.710,0.672,�k��,5.5,��
2019/10/28,02:00,0.707,1.000,0.649,1.233,0.856,0.410,0.711,0.673,�k��,5.6,��
2019/10/28,02:10,0.707,0.999,0.651,1.230,0.856,0.409,0.708,0.672,�k��,4.3,��
2019/10/28,02:20,0.707,0.998,0.650,1.233,0.854,0.410,0.709,0.673,�k��,3.9,��
2019/10/28,02:30,0.706,1.000,0.649,1.232,0.856,0.409,0.708,0.672,�k��,4.7,��
2019/10/28,02:40,0.707,0.998,0.651,1.230,0.855,0.409,0.708,0.673,�k��,4.3,��
2019/10/28,02:50,0.708,0.998,0.650,1.233,0.859,0.410,0.709,0.672,�k��,4.6,��
2019/10/28,03:00,0.707,0.999,0.651,1.232,0.856,0.410,0.709,0.674,�k�k��,5.0,��
2019/10/28,03:10,0.706,0.999,0.651,1.230,0.860,0.410,0.708,0.674,�k�k��,5.3,��
2019/10/28,03:20,0.706,0.997,0.649,1.233,0.856,0.409,0.709,0.672,�k�k��,4.0,��
2019/10/28,03:30,0.706,0.999,0.651,1.231,0.857,0.410,0.709,0.672,�k�k��,5.2,��
2019/10/28,03:40,0.706,0.999,0.648,1.233,0.857,0.408,0.709,0.673,�k�k��,5.2,��
2019/10/28,03:50,0.705,1.001,0.649,1.233,0.858,0.410,0.707,0.674,�k��,4.9,��
2019/10/28,04:00,0.707,0.999,0.650,1.231,0.858,0.409,0.708,0.675,�k�k��,3.6,��
2019/10/28,04:10,0.707,0.998,0.649,1.234,0.858,0.409,0.710,0.673,�k�k��,3.8,��
2019/10/28,04:20,0.706,0.999,0.650,1.232,0.857,0.409,0.707,0.673,�k��,4.6,��
2019/10/28,04:30,0.707,0.998,0.647,1.232,0.858,0.410,0.709,0.675,�k�k��,3.9,��
2019/10/28,04:40,0.705,0.998,0.650,1.231,0.857,0.410,0.707,0.673,�k�k��,2.4,��
2019/10/28,04:50,0.705,0.998,0.649,1.231,0.858,0.410,0.708,0.673,�k�k��,2.3,��
2019/10/28,05:00,0.706,0.998,0.648,1.234,0.857,0.409,0.707,0.672,�k,2.1,��
2019/10/28,05:10,0.708,0.999,0.650,1.233,0.858,0.410,0.708,0.673,�k�k��,2.9,��
2019/10/28,05:20,0.708,1.000,0.651,1.233,0.858,0.408,0.709,0.673,�k�k��,2.7,��
2019/10/28,05:30,0.706,0.998,0.648,1.233,0.858,0.408,0.708,0.672,�k�k��,2.6,��
2019/10/28,05:40,0.705,0.999,0.649,1.230,0.857,0.409,0.709,0.674,�k�k��,3.4,��
2019/10/28,05:50,0.704,0.997,0.649,1.233,0.856,0.410,0.709,0.673,�k�k��,3.4,��
2019/10/28,06:00,0.705,1.000,0.650,1.234,0.856,0.409,0.708,0.674,�k��,3.2,��
2019/10/28,06:10,0.706,0.997,0.650,1.231,0.858,0.410,0.708,0.673,�k��,3.3,��
2019/10/28,06:20,0.705,0.999,0.650,1.229,0.858,0.408,0.709,0.674,�k��,2.3,��
2019/10/28,06:30,0.706,0.996,0.652,1.232,0.857,0.410,0.709,0.673,�k�k��,2.8,��
2019/10/28,06:40,0.706,0.998,0.650,1.232,0.859,0.409,0.710,0.673,�k�k��,2.9,��
2019/10/28,06:50,0.706,0.997,0.650,1.234,0.857,0.408,0.709,0.673,�k�k��,3.6,��
2019/10/28,07:00,0.707,0.998,0.650,1.230,0.856,0.408,0.708,0.673,�k�k��,4.2,��
2019/10/28,07:10,0.705,0.998,0.651,1.233,0.858,0.409,0.708,0.675,�k��,5.5,��
2019/10/28,07:20,0.705,0.999,0.649,1.235,0.858,0.409,0.710,0.673,�k��,6.3,��
2019/10/28,07:30,0.704,0.999,0.650,1.234,0.857,0.408,0.711,0.672,�k��,6.6,��
2019/10/28,07:40,0.706,0.999,0.649,1.232,0.857,0.409,0.709,0.672,�k��,6.3,��
2019/10/28,07:50,0.706,1.000,0.647,1.229,0.857,0.409,0.709,0.673,�k��,5.2,��
2019/10/28,08:00,0.706,0.999,0.648,1.233,0.857,0.410,0.709,0.673,�k��,4.9,��
2019/10/28,08:10,0.707,0.997,0.649,1.233,0.858,0.409,0.709,0.672,�k��,4.2,��
2019/10/28,08:20,0.708,0.999,0.648,1.232,0.858,0.407,0.710,0.672,�k�k��,3.0,��
2019/10/28,08:30,0.706,0.998,0.648,1.235,0.858,0.410,0.707,0.671,�k�k��,3.0,��
2019/10/28,08:40,0.708,0.996,0.649,1.234,0.858,0.409,0.708,0.673,�k�k��,2.1,��
2019/10/28,08:50,0.709,0.994,0.648,1.233,0.858,0.408,0.707,0.672,�k,2.7,��
2019/10/28,09:00,0.708,0.993,0.649,1.236,0.858,0.411,0.708,0.673,�k,3.1,��
2019/10/28,09:10,0.707,0.995,0.645,1.234,0.856,0.410,0.709,0.673,�k,2.9,��
2019/10/28,09:20,0.706,0.993,0.649,1.235,0.860,0.410,0.709,0.674,�k,3.3,��
2019/10/28,09:30,0.706,0.992,0.647,1.233,0.858,0.410,0.708,0.675,�k�k��,4.0,��
2019/10/28,09:40,0.709,0.995,0.647,1.233,0.859,0.409,0.708,0.675,�k�k��,3.5,��
2019/10/28,09:50,0.708,0.991,0.646,1.235,0.859,0.410,0.709,0.675,�k�k��,2.6,��
2019/10/28,10:00,0.708,0.992,0.647,1.235,0.859,0.409,0.709,0.673,�k�k��,3.8,��
2019/10/28,10:10,0.706,0.995,0.649,1.235,0.859,0.409,0.710,0.675,�k,4.5,��
2019/10/28,10:20,0.706,0.996,0.646,1.235,0.856,0.407,0.708,0.673,�k��,3.6,��
2019/10/28,10:30,0.708,0.997,0.648,1.236,0.856,0.408,0.710,0.674,�k�k��,3.9,��
2019/10/28,10:40,0.709,0.996,0.648,1.235,0.859,0.407,0.710,0.674,�k�k��,4.1,��
2019/10/28,10:50,0.708,0.994,0.648,1.236,0.859,0.408,0.711,0.675,�k��,3.9,��
2019/10/28,11:00,0.706,0.996,0.647,1.236,0.860,0.408,0.708,0.673,�k�k��,3.8,��
2019/10/28,11:10,0.709,0.999,0.649,1.236,0.861,0.407,0.709,0.674,�k��,4.0,��
2019/10/28,11:20,0.707,0.998,0.643,1.238,0.860,0.408,0.709,0.674,�k�k��,3.5,��
2019/10/28,11:30,0.708,1.000,0.648,1.235,0.860,0.408,0.710,0.673,�k��,3.3,��
2019/10/28,11:40,0.707,1.001,0.649,1.235,0.862,0.407,0.711,0.675,�k��,3.2,��
2019/10/28,11:50,0.710,1.001,0.649,1.237,0.861,0.410,0.711,0.675,�k��,3.0,��
2019/10/28,12:00,0.708,1.001,0.649,1.237,0.861,0.409,0.710,0.674,�k��,2.7,��
2019/10/28,12:10,0.709,1.002,0.651,1.239,0.861,0.409,0.711,0.674,�k��,2.8,��
2019/10/28,12:20,0.709,1.004,0.651,1.236,0.860,0.411,0.711,0.672,��,2.5,��
2019/10/28,12:30,0.710,1.001,0.651,1.237,0.864,0.410,0.711,0.671,�k��,2.1,��
2019/10/28,12:40,0.708,1.001,0.651,1.237,0.863,0.411,0.709,0.670,�k��,3.0,��
2019/10/28,12:50,0.709,1.003,0.649,1.236,0.863,0.409,0.708,0.672,���k��,2.3,��
2019/10/28,13:00,0.709,1.004,0.650,1.237,0.862,0.412,0.708,0.671,�k��,2.9,��
2019/10/28,13:10,0.709,1.001,0.650,1.237,0.862,0.412,0.710,0.672,��,3.0,��
2019/10/28,13:20,0.712,0.999,0.650,1.235,0.864,0.410,0.709,0.672,��,2.4,��
2019/10/28,13:30,0.710,1.001,0.651,1.238,0.864,0.409,0.709,0.672,��,3.4,��
2019/10/28,13:40,0.710,1.001,0.647,1.237,0.864,0.410,0.712,0.675,���k��,2.6,��
2019/10/28,13:50,0.708,1.002,0.648,1.237,0.862,0.408,0.710,0.672,��,2.1,��
2019/10/28,14:00,0.709,1.002,0.649,1.238,0.865,0.409,0.709,0.672,���k��,1.7,��
2019/10/28,14:10,0.709,1.002,0.650,1.239,0.858,0.408,0.710,0.672,��,2.3,��
2019/10/28,14:20,0.709,1.002,0.650,1.237,0.848,0.409,0.711,0.673,���k��,2.3,��
2019/10/28,14:30,0.708,1.003,0.651,1.236,0.848,0.408,0.711,0.673,��,2.3,��
2019/10/28,14:40,0.711,1.002,0.651,1.238,0.847,0.408,0.710,0.670,��,2.0,��
2019/10/28,14:50,0.710,1.002,0.651,1.240,0.846,0.409,0.710,0.670,�쓌,1.5,��
2019/10/28,15:00,0.710,1.005,0.651,1.238,0.849,0.410,0.709,0.673,��,2.1,��
2019/10/28,15:10,0.710,1.005,0.651,1.238,0.846,0.410,0.709,0.671,�쓌,2.3,��
2019/10/28,15:20,0.712,1.006,0.650,1.240,0.847,0.409,0.712,0.674,�쓌,2.4,��
2019/10/28,15:30,0.710,1.007,0.649,1.235,0.848,0.411,0.710,0.672,���쓌,1.6,��
2019/10/28,15:40,0.709,1.006,0.650,1.237,0.860,0.410,0.711,0.674,�쓌,1.9,��
2019/10/28,15:50,0.709,1.007,0.651,1.237,0.866,0.410,0.712,0.672,�쓌,2.2,��
2019/10/28,16:00,0.711,1.008,0.651,1.240,0.867,0.411,0.712,0.672,�쓌,2.2,��
2019/10/28,16:10,0.709,1.007,0.649,1.236,0.867,0.410,0.713,0.675,��쓌,2.3,��
2019/10/28,16:20,0.709,1.007,0.650,1.240,0.867,0.411,0.711,0.675,�쓌,2.0,��
2019/10/28,16:30,0.709,1.009,0.649,1.238,0.865,0.412,0.711,0.674,�쓌,1.6,��
2019/10/28,16:40,0.710,1.011,0.649,1.237,0.866,0.412,0.712,0.674,��,2.3,��
2019/10/28,16:50,0.709,1.012,0.651,1.240,0.864,0.411,0.711,0.675,��쓌,1.9,��
2019/10/28,17:00,0.711,1.011,0.654,1.236,0.866,0.410,0.711,0.675,��쓌,2.6,��
2019/10/28,17:10,0.710,1.008,0.654,1.238,0.866,0.410,0.713,0.674,�쓌,1.8,��
2019/10/28,17:20,0.713,1.010,0.651,1.238,0.867,0.412,0.711,0.673,��쓌,1.9,��
2019/10/28,17:30,0.712,1.008,0.655,1.237,0.869,0.412,0.712,0.674,��,2.0,��
2019/10/28,17:40,0.712,1.009,0.652,1.237,0.868,0.411,0.712,0.674,��쓌,2.6,��
2019/10/28,17:50,0.712,1.012,0.653,1.240,0.867,0.412,0.711,0.673,��쓌,3.0,��
2019/10/28,18:00,0.712,1.010,0.653,1.239,0.868,0.412,0.712,0.675,��,2.7,��
2019/10/28,18:10,0.711,1.010,0.653,1.239,0.868,0.412,0.711,0.674,��,3.0,��
2019/10/28,18:20,0.710,1.013,0.652,1.238,0.867,0.410,0.712,0.675,��,2.8,��
2019/10/28,18:30,0.713,1.010,0.653,1.239,0.867,0.412,0.712,0.674,��,3.2,��
2019/10/28,18:40,0.710,1.012,0.653,1.237,0.867,0.411,0.712,0.673,��,3.8,��
2019/10/28,18:50,0.712,1.008,0.653,1.238,0.868,0.409,0.711,0.674,��,4.3,��
2019/10/28,19:00,0.711,1.011,0.653,1.238,0.870,0.412,0.711,0.674,��,5.0,��
2019/10/28,19:10,0.714,1.012,0.655,1.236,0.867,0.411,0.714,0.676,��,4.7,��
2019/10/28,19:20,0.711,1.008,0.653,1.238,0.867,0.411,0.712,0.674,��,5.2,��
2019/10/28,19:30,0.710,1.010,0.652,1.239,0.869,0.411,0.711,0.674,��,5.5,��
2019/10/28,19:40,0.711,1.009,0.654,1.238,0.867,0.410,0.710,0.675,��,5.2,��
2019/10/28,19:50,0.713,1.007,0.653,1.239,0.868,0.411,0.710,0.674,��,5.5,��
2019/10/28,20:00,0.710,1.011,0.652,1.237,0.869,0.412,0.712,0.673,��,5.6,��
2019/10/28,20:10,0.710,1.010,0.652,1.236,0.868,0.410,0.711,0.675,��,5.5,��
2019/10/28,20:20,0.710,1.010,0.652,1.239,0.870,0.411,0.711,0.673,��,5.2,��
2019/10/28,20:30,0.711,1.009,0.653,1.240,0.868,0.411,0.711,0.674,��,5.3,��
2019/10/28,20:40,0.710,1.009,0.653,1.238,0.868,0.411,0.712,0.675,��,4.9,��
2019/10/28,20:50,0.712,1.011,0.653,1.236,0.869,0.412,0.711,0.673,��쐼,4.5,��
2019/10/28,21:00,0.711,1.009,0.652,1.239,0.866,0.410,0.711,0.674,��,5.2,��
2019/10/28,21:10,0.711,1.007,0.653,1.238,0.867,0.411,0.713,0.675,��,5.2,��
2019/10/28,21:20,0.711,1.010,0.652,1.239,0.866,0.410,0.712,0.674,��,5.6,��
2019/10/28,21:30,0.711,1.009,0.654,1.237,0.869,0.413,0.711,0.675,��,6.0,��
2019/10/28,21:40,0.710,1.008,0.651,1.238,0.869,0.410,0.712,0.672,��,6.0,��
2019/10/28,21:50,0.712,1.009,0.652,1.241,0.867,0.412,0.711,0.674,��쐼,5.5,��
2019/10/28,22:00,0.710,1.010,0.653,1.242,0.868,0.412,0.711,0.673,��쐼,5.5,��
2019/10/28,22:10,0.710,1.009,0.653,1.239,0.867,0.412,0.711,0.674,��쐼,5.5,��
2019/10/28,22:20,0.708,1.009,0.653,1.237,0.867,0.411,0.710,0.675,��,5.5,��
2019/10/28,22:30,0.710,1.008,0.653,1.239,0.868,0.414,0.712,0.675,��,5.5,��
2019/10/28,22:40,0.710,1.008,0.652,1.239,0.868,0.412,0.710,0.673,��,5.8,��
2019/10/28,22:50,0.709,1.008,0.653,1.238,0.868,0.411,0.711,0.675,��쐼,5.2,��
2019/10/28,23:00,0.710,1.009,0.652,1.239,0.867,0.412,0.712,0.673,��쐼,5.5,��
2019/10/28,23:10,0.710,1.008,0.650,1.239,0.868,0.413,0.710,0.673,��,5.6,��
2019/10/28,23:20,0.710,1.007,0.650,1.237,0.867,0.411,0.710,0.674,��,5.2,��
2019/10/28,23:30,0.711,1.008,0.652,1.238,0.868,0.413,0.712,0.674,��쐼,4.6,��
2019/10/28,23:40,0.709,1.007,0.652,1.238,0.869,0.412,0.712,0.676,��쐼,4.1,��
2019/10/28,23:50,0.710,1.005,0.652,1.237,0.869,0.412,0.710,0.674,��쐼,5.2,��
